Date String (YYYY-MM-DD hh:mm:ss) UTC,Instrument flags,Ambient pressure (hPa),Sample flow (lpm),Bypass flow (lpm),Sample temperature (°C),Ambient temperature (°C),ASC tube jacket temperature (°C),LED temperature (°C),Box temperature (°C),Sample RH (%),Span deviation,Mass concentration (μg/m³),Mass concentration (μg/m³),Mass concentration (μg/m³)
DateTimeUTC,F1_M11,P_M11,Q1_M11,Q2_M11,T1_M11,T2_M11,T3_M11,T4_M11,T5_M11,U1_M11,ZSPAN_M11,X2_M11,X0_M11,X1_M11
2023-02-19 18:00:00,,0821.4,4.96,0.00,21.6,20.3,00.0,30.4,23.3,13.7,0000.0,0002.22,0005.07,0001.37
2023-02-19 18:01:00,,0821.3,5.02,0.00,21.6,20.3,00.0,30.4,23.3,13.3,0000.0,0002.23,0004.89,0001.37
2023-02-19 18:02:00,,0821.4,5.00,0.00,21.6,20.3,00.0,30.4,23.3,13.5,0000.0,0002.24,0004.99,0001.36
2023-02-19 18:03:00,,0821.4,5.01,0.00,21.6,20.2,00.0,30.4,23.3,13.8,0000.0,0002.21,0005.30,0001.35
2023-02-19 18:04:00,,0821.4,4.99,0.00,21.6,20.2,00.0,30.4,23.3,14.0,0000.0,0002.24,0005.67,0001.35
2023-02-19 18:05:00,,0821.4,4.98,0.00,21.6,20.2,00.0,30.4,23.3,13.8,0000.0,0002.26,0005.90,0001.35
2023-02-19 18:06:00,,0821.3,5.01,0.00,21.6,20.2,00.0,30.4,23.3,13.7,0000.0,0002.28,0006.73,0001.36
2023-02-19 18:07:00,,0821.3,5.00,0.00,21.6,20.2,00.0,30.4,23.3,13.8,0000.0,0002.29,0006.61,0001.35
2023-02-19 18:08:00,,0821.2,4.98,0.00,21.6,20.2,00.0,30.5,23.3,13.5,0000.0,0002.28,0006.15,0001.35
2023-02-19 18:09:00,,0821.3,4.98,0.00,21.6,20.2,00.0,30.5,23.3,13.3,0000.0,0002.28,0006.10,0001.36
2023-02-19 18:10:00,,0821.3,5.01,0.00,21.6,20.2,00.0,30.5,23.3,13.3,0000.0,0002.25,0006.05,0001.35
2023-02-19 18:11:00,,0821.4,4.99,0.00,21.6,20.2,00.0,30.5,23.3,13.2,0000.0,0002.25,0006.02,0001.36
2023-02-19 18:12:00,,0821.3,5.00,0.00,21.6,20.2,00.0,30.5,23.3,13.3,0000.0,0002.26,0006.22,0001.35
2023-02-19 18:13:00,,0821.3,5.00,0.00,21.6,20.2,00.0,30.5,23.3,13.3,0000.0,0002.25,0007.38,0001.34
2023-02-19 18:14:00,,0821.3,4.98,0.00,21.6,20.1,00.0,30.5,23.3,13.1,0000.0,0002.31,0007.48,0001.35
2023-02-19 18:15:00,,0821.4,5.01,0.00,21.6,20.2,00.0,30.5,23.3,13.1,0000.0,0002.27,0007.38,0001.36
2023-02-19 18:16:00,,0821.3,5.02,0.00,21.6,20.2,00.0,30.5,23.3,13.2,0000.0,0002.32,0007.48,0001.36
2023-02-19 18:17:00,,0821.3,5.04,0.00,21.6,20.2,00.0,30.5,23.3,13.1,0000.0,0002.31,0007.13,0001.37
2023-02-19 18:18:00,,0821.3,4.99,0.00,21.6,20.2,00.0,30.5,23.3,13.2,0000.0,0002.28,0007.65,0001.37
2023-02-19 18:19:00,,0821.3,5.02,0.00,21.6,20.2,00.0,30.5,23.3,13.5,0000.0,0002.28,0007.65,0001.36
2023-02-19 18:20:00,,0821.2,4.97,0.00,21.6,20.2,00.0,30.5,23.3,13.4,0000.0,0002.27,0007.95,0001.36
2023-02-19 18:21:00,,0821.2,5.00,0.00,21.6,20.1,00.0,30.5,23.3,13.5,0000.0,0002.28,0008.59,0001.36
2023-02-19 18:22:00,,0821.2,4.99,0.00,21.6,20.1,00.0,30.5,23.3,13.3,0000.0,0002.30,0008.73,0001.36
2023-02-19 18:23:00,,0821.2,5.00,0.00,21.6,20.1,00.0,30.5,23.3,13.4,0000.0,0002.34,0009.01,0001.37
2023-02-19 18:24:00,,0821.2,5.01,0.00,21.6,20.1,00.0,30.5,23.3,13.3,0000.0,0002.38,0008.31,0001.38
2023-02-19 18:25:00,,0821.1,5.02,0.00,21.6,20.0,00.0,30.5,23.3,13.5,0000.0,0002.37,0008.17,0001.39
2023-02-19 18:26:00,,0821.2,5.00,0.00,21.6,20.0,00.0,30.5,23.3,13.6,0000.0,0002.41,0008.21,0001.39
2023-02-19 18:27:00,,0821.2,5.01,0.00,21.6,20.1,00.0,30.5,23.3,13.6,0000.0,0002.39,0008.79,0001.40
2023-02-19 18:28:00,,0821.2,5.00,0.00,21.6,20.1,00.0,30.5,23.4,13.6,0000.0,0002.36,0008.55,0001.39
2023-02-19 18:29:00,,0821.2,4.99,0.00,21.6,20.1,00.0,30.5,23.4,13.7,0000.0,0002.37,0008.09,0001.39
2023-02-19 18:30:00,,0821.2,4.94,0.00,21.6,20.2,00.0,30.5,23.4,13.8,0000.0,0002.34,0008.11,0001.39
2023-02-19 18:31:00,,0821.2,4.94,0.00,21.6,20.2,00.0,30.5,23.4,13.5,0000.0,0002.32,0008.03,0001.38
2023-02-19 18:32:00,,0821.3,5.00,0.00,21.6,20.2,00.0,30.5,23.3,13.3,0000.0,0002.29,0006.86,0001.37
2023-02-19 18:33:00,,0821.2,5.01,0.00,21.6,20.2,00.0,30.5,23.4,13.2,0000.0,0002.29,0007.21,0001.37
2023-02-19 18:34:00,,0821.2,4.99,0.00,21.6,20.2,00.0,30.5,23.4,13.1,0000.0,0002.23,0006.52,0001.36
2023-02-19 18:35:00,,0821.2,5.01,0.00,21.6,20.2,00.0,30.5,23.4,12.9,0000.0,0002.17,0006.30,0001.35
2023-02-19 18:36:00,,0821.2,5.00,0.00,21.6,20.2,00.0,30.5,23.4,13.2,0000.0,0002.11,0006.23,0001.33
2023-02-19 18:37:00,,0821.1,5.00,0.00,21.6,20.2,00.0,30.5,23.4,13.2,0000.0,0002.06,0006.46,0001.34
2023-02-19 18:38:00,,0821.1,5.00,0.00,21.6,20.2,00.0,30.5,23.4,13.0,0000.0,0002.01,0005.33,0001.33
2023-02-19 18:39:00,,0821.1,5.00,0.00,21.6,20.2,00.0,30.5,23.4,12.9,0000.0,0002.00,0005.04,0001.34
2023-02-19 18:40:00,,0821.1,4.98,0.00,21.6,20.2,00.0,30.5,23.4,12.9,0000.0,0001.98,0005.18,0001.33
2023-02-19 18:41:00,,0821.1,5.01,0.00,21.6,20.2,00.0,30.5,23.4,13.0,0000.0,0001.97,0005.08,0001.33
2023-02-19 18:42:00,,0821.0,5.01,0.00,21.6,20.2,00.0,30.5,23.4,13.0,0000.0,0001.95,0004.95,0001.33
2023-02-19 18:43:00,,0821.0,5.01,0.00,21.6,20.2,00.0,30.5,23.4,13.1,0000.0,0001.98,0005.04,0001.34
2023-02-19 18:44:00,,0821.0,4.97,0.00,21.6,20.3,00.0,30.5,23.4,13.1,0000.0,0001.98,0004.84,0001.34
2023-02-19 18:45:00,,0821.0,5.00,0.00,21.7,20.3,00.0,30.5,23.4,13.0,0000.0,0001.95,0004.36,0001.33
2023-02-19 18:46:00,,0821.0,5.00,0.00,21.7,20.3,00.0,30.5,23.4,13.3,0000.0,0001.98,0005.89,0001.35
2023-02-19 18:47:00,,0821.0,5.01,0.00,21.7,20.3,00.0,30.5,23.4,13.1,0000.0,0002.00,0006.15,0001.36
2023-02-19 18:48:00,,0820.9,5.00,0.00,21.6,20.3,00.0,30.5,23.4,13.0,0000.0,0001.98,0005.62,0001.36
2023-02-19 18:49:00,,0821.0,4.99,0.00,21.6,20.3,00.0,30.5,23.4,13.0,0000.0,0002.02,0005.47,0001.36
2023-02-19 18:50:00,,0820.9,5.01,0.00,21.7,20.3,00.0,30.5,23.4,13.3,0000.0,0002.04,0005.52,0001.35
2023-02-19 18:51:00,,0820.9,5.00,0.00,21.7,20.3,00.0,30.5,23.5,13.4,0000.0,0002.01,0005.19,0001.35
2023-02-19 18:52:00,,0820.9,5.00,0.00,21.7,20.4,00.0,30.5,23.5,13.0,0000.0,0002.05,0005.24,0001.36
2023-02-19 18:53:00,,0820.9,5.01,0.00,21.7,20.4,00.0,30.5,23.5,13.1,0000.0,0002.08,0005.34,0001.36
2023-02-19 18:54:00,,0820.9,5.05,0.00,21.7,20.4,00.0,30.5,23.5,13.2,0000.0,0002.07,0005.32,0001.37
2023-02-19 18:55:00,,0820.8,5.02,0.00,21.7,20.4,00.0,30.5,23.4,13.5,0000.0,0002.08,0005.31,0001.37
2023-02-19 18:56:00,,0820.9,5.00,0.00,21.7,20.3,00.0,30.5,23.5,13.3,0000.0,0002.10,0005.36,0001.37
2023-02-19 18:57:00,,0820.8,5.00,0.00,21.7,20.3,00.0,30.6,23.5,13.2,0000.0,0002.17,0004.51,0001.38
2023-02-19 18:58:00,,0820.8,5.01,0.00,21.7,20.3,00.0,30.6,23.5,13.3,0000.0,0002.15,0003.91,0001.37
2023-02-19 18:59:00,,0820.7,4.97,0.00,21.7,20.4,00.0,30.6,23.5,13.4,0000.0,0002.16,0004.06,0001.37
